period_start,C,m1,H,J0,J1,J2,J3,J4,J5,JA,JB,JC,JD,JJ,JK,JN,#
2015-03-09 00:01:15,0.13,3.02,0.00,21.19,26.22,29.50,4.89,28.40,1021.99,2036.00,2404.26,2543.38,2738.01,350.30,351.80,23.44,0000 0000 0000 0000 000000
2015-03-09 00:06:16,0.14,3.02,0.00,21.19,26.24,29.53,4.96,28.47,1022.00,2036.00,2403.14,2542.45,2737.08,350.34,351.92,23.47,0000 0000 0000 0000 000000
2015-03-09 00:11:17,0.12,3.02,0.00,21.16,26.25,29.55,4.86,28.23,1022.01,2036.00,2402.05,2541.69,2736.20,350.08,351.78,23.50,0000 0000 0000 0000 000000
2015-03-09 00:16:18,0.12,3.03,0.00,21.14,26.27,29.56,4.84,28.23,1022.03,2036.00,2400.94,2540.86,2735.26,349.82,351.57,23.53,0000 0000 0000 0000 000000
2015-03-09 00:21:20,0.12,3.03,0.00,21.18,26.28,29.57,4.90,28.23,1022.04,2036.00,2399.94,2540.03,2734.34,350.83,352.23,23.56,0000 0000 0000 0000 000000
2015-03-09 00:26:21,0.15,3.04,0.00,21.17,26.30,29.55,4.89,28.31,1022.01,2035.99,2398.76,2539.13,2733.47,349.40,351.09,23.59,0000 0000 0000 0000 000000
2015-03-09 00:31:23,0.13,3.04,0.00,21.19,26.31,29.56,4.87,28.38,1022.02,2035.98,2397.72,2538.35,2732.62,349.57,351.30,23.62,0000 0000 0000 0000 000000
2015-03-09 00:36:24,0.13,3.04,0.00,21.17,26.32,29.56,4.84,28.31,1022.12,2035.97,2396.64,2537.53,2731.72,349.78,351.22,23.65,0000 0000 0000 0000 000000
2015-03-09 00:41:25,0.14,3.05,0.00,21.20,26.33,29.58,4.82,28.23,1022.30,2035.93,2395.46,2536.62,2730.68,349.83,351.43,23.68,0000 0000 0000 0000 000000
2015-03-09 00:46:26,0.06,3.05,0.00,21.20,26.35,29.57,4.83,28.23,1022.23,2035.87,2394.47,2535.95,2729.91,348.96,350.83,23.71,0000 0000 0000 0000 000000
2015-03-09 00:51:28,0.12,3.05,0.00,21.16,26.36,29.58,4.79,28.37,1022.13,2035.75,2393.40,2535.08,2728.99,349.36,351.18,23.74,0000 0000 0000 0000 000000
2015-03-09 00:56:29,0.10,3.06,0.00,21.14,26.37,29.60,4.89,28.34,1022.10,2035.57,2392.31,2534.19,2728.07,350.63,352.19,23.76,0000 0000 0000 0000 000000
2015-03-09 01:01:30,0.11,3.06,0.00,21.17,26.38,29.65,4.89,28.21,1022.17,2035.31,2391.24,2533.35,2727.17,350.69,352.44,23.79,0000 0000 0000 0000 000000
2015-03-09 01:06:31,0.10,3.06,0.00,21.18,26.40,29.62,4.79,28.37,1022.17,2035.11,2390.13,2532.54,2726.25,349.53,351.28,23.82,0000 0000 0000 0000 000000
2015-03-09 01:11:33,0.08,3.07,0.00,21.26,26.40,29.61,4.89,28.29,1022.09,2035.03,2389.09,2531.84,2725.38,350.13,351.82,23.85,0000 0000 0000 0000 000000
2015-03-09 01:16:34,0.12,3.07,0.00,21.24,26.42,29.60,4.85,28.29,1022.01,2035.03,2388.05,2531.02,2724.55,350.13,351.64,23.88,0000 0000 0000 0000 000000
2015-03-09 01:21:35,0.13,3.07,0.00,21.19,26.42,29.60,4.84,28.30,1022.02,2035.01,2386.97,2530.15,2723.69,349.52,351.26,23.91,0000 0000 0000 0000 000000
2015-03-09 01:26:36,0.14,3.08,0.00,21.25,26.44,29.65,4.88,28.33,1022.01,2035.01,2385.84,2529.35,2722.81,350.56,352.19,23.94,0000 0000 0000 0000 000000
2015-03-09 01:31:37,0.12,3.08,0.00,21.28,26.45,29.69,4.85,28.27,1022.04,2035.00,2384.78,2528.57,2721.99,349.78,351.25,23.97,0000 0000 0000 0000 000000
2015-03-09 01:36:38,0.08,3.08,0.00,21.27,26.45,29.69,4.90,28.21,1022.00,2035.00,2383.84,2527.95,2721.12,350.60,352.19,24.00,0000 0000 0000 0000 000000
2015-03-09 01:41:40,0.16,3.09,0.00,21.29,26.47,29.68,4.84,28.32,1022.00,2035.00,2382.66,2527.06,2720.24,349.78,351.45,24.03,0000 0000 0000 0000 000000
2015-03-09 01:46:41,0.13,3.09,0.00,21.32,26.47,29.70,4.94,28.24,1022.03,2035.00,2381.67,2526.13,2719.42,350.41,351.78,24.06,0000 0000 0000 0000 000000
2015-03-09 01:51:42,0.14,3.10,0.00,21.34,26.50,29.70,4.85,28.23,1022.04,2035.00,2380.61,2525.40,2718.50,349.81,351.32,24.09,0000 0000 0000 0000 000000
2015-03-09 01:56:44,0.13,3.10,0.00,21.35,26.50,29.72,4.88,28.29,1022.06,2035.00,2379.58,2524.63,2717.63,349.93,351.48,24.12,0000 0000 0000 0000 000000
2015-03-09 02:01:45,0.10,3.10,0.00,21.36,26.51,29.73,4.85,28.08,1022.19,2034.99,2378.47,2523.87,2716.77,349.38,351.22,24.14,0000 0000 0000 0000 000000
2015-03-09 02:06:46,0.12,3.11,0.00,21.42,26.52,29.73,4.92,28.10,1022.38,2034.98,2377.42,2523.02,2715.95,349.87,351.48,24.17,0000 0000 0000 0000 000000
2015-03-09 02:11:47,0.14,3.11,0.00,21.48,26.54,29.76,4.85,28.16,1022.36,2034.98,2376.47,2522.16,2715.09,349.70,351.17,24.20,0000 0000 0000 0000 000000
2015-03-09 02:16:48,0.13,3.11,0.00,21.48,26.55,29.78,4.83,27.98,1022.28,2034.98,2375.49,2521.58,2714.34,349.77,351.27,24.23,0000 0000 0000 0000 000000
2015-03-09 02:21:50,0.11,3.12,0.00,21.54,26.57,29.79,4.83,27.95,1022.06,2034.98,2374.47,2520.81,2713.45,350.18,351.58,24.26,0000 0000 0000 0000 000000
2015-03-09 02:26:51,0.11,3.12,0.00,21.61,26.57,29.85,4.89,28.16,1022.14,2034.98,2373.47,2520.03,2712.66,349.87,351.10,24.29,0000 0000 0000 0000 000000
2015-03-09 02:31:53,0.11,3.13,0.00,21.64,26.60,29.85,4.81,28.02,1022.43,2034.85,2372.33,2519.21,2711.77,349.47,350.86,24.32,0000 0000 0000 0000 000000
2015-03-09 02:36:54,0.06,3.13,0.00,21.66,26.61,29.86,4.87,27.98,1022.44,2034.51,2371.19,2518.29,2710.82,350.35,351.30,24.35,0000 0000 0000 0000 000000
2015-03-09 02:41:55,0.08,3.13,0.00,21.67,26.62,29.89,4.92,28.06,1022.28,2034.12,2370.13,2517.40,2709.77,350.49,351.79,24.38,0000 0000 0000 0000 000000
2015-03-09 02:46:57,0.12,3.13,0.00,21.71,26.65,29.91,4.86,28.02,1022.40,2034.02,2369.05,2516.61,2708.89,350.25,351.26,24.41,0000 0000 0000 0000 000000
2015-03-09 02:51:58,0.10,3.14,0.00,21.73,26.67,29.94,4.81,27.90,1022.48,2034.00,2367.95,2515.84,2708.03,349.87,351.27,24.44,0000 0000 0000 0000 000000
2015-03-09 02:56:59,0.12,3.14,0.00,21.72,26.69,29.98,4.81,27.97,1022.49,2034.00,2367.06,2515.04,2707.14,349.99,351.25,24.47,0000 0000 0000 0000 000000
2015-03-09 03:02:01,0.14,3.14,0.00,21.81,26.71,30.04,4.91,28.15,1022.49,2034.00,2366.17,2514.23,2706.28,350.43,351.72,24.50,0000 0000 0000 0000 000000
2015-03-09 03:07:02,0.14,3.15,0.00,21.80,26.74,30.01,4.86,27.89,1022.52,2034.00,2365.01,2513.37,2705.37,350.09,351.22,24.53,0000 0000 0000 0000 000000
2015-03-09 03:12:03,0.14,3.15,0.00,21.94,26.76,30.04,4.87,28.02,1022.57,2034.00,2363.88,2512.52,2704.47,350.38,351.32,24.55,0000 0000 0000 0000 000000
2015-03-09 03:17:05,0.12,3.16,0.00,21.93,26.78,30.05,4.90,27.88,1022.67,2033.98,2362.81,2511.78,2703.58,350.49,351.56,24.58,0000 0000 0000 0000 000000
2015-03-09 03:22:06,0.11,3.16,0.00,21.99,26.81,30.11,4.81,27.81,1022.68,2033.97,2361.76,2510.95,2702.75,350.23,351.24,24.61,0000 0000 0000 0000 000000
2015-03-09 03:27:07,0.13,3.16,0.00,22.04,26.84,30.14,4.84,28.18,1022.66,2033.93,2360.70,2510.08,2701.84,350.29,351.13,24.64,0000 0000 0000 0000 000000
2015-03-09 03:32:09,0.10,3.17,0.00,22.04,26.86,30.20,4.90,27.98,1022.52,2033.74,2359.65,2509.27,2700.88,350.38,351.17,24.67,0000 0000 0000 0000 000000
2015-03-09 03:37:10,0.05,3.17,0.00,22.08,26.89,30.21,4.88,28.04,1022.65,2033.24,2358.56,2508.34,2699.92,350.21,350.94,24.70,0000 0000 0000 0000 000000
2015-03-09 03:42:11,0.14,3.17,0.00,22.12,26.92,30.25,4.86,28.20,1022.73,2033.04,2357.32,2507.40,2698.87,350.10,350.92,24.73,0000 0000 0000 0000 000000
2015-03-09 03:47:12,0.13,3.18,0.00,22.18,26.95,30.24,4.80,28.13,1022.89,2033.00,2356.27,2506.55,2697.90,349.76,350.47,24.76,0000 0000 0000 0000 000000
2015-03-09 03:52:13,0.14,3.18,0.00,22.16,26.98,30.25,4.78,28.12,1022.80,2033.00,2355.08,2505.64,2696.95,349.43,350.25,24.79,0000 0000 0000 0000 000000
2015-03-09 03:57:14,0.14,3.19,0.00,22.17,27.01,30.30,4.77,27.95,1022.95,2033.00,2353.95,2504.72,2695.98,349.59,350.61,24.82,0000 0000 0000 0000 000000
2015-03-09 04:02:16,0.12,3.19,0.00,22.27,27.04,30.35,4.88,27.97,1022.96,2032.98,2352.80,2503.90,2695.03,350.11,350.69,24.85,0000 0000 0000 0000 000000
2015-03-09 04:07:17,0.13,3.19,0.00,22.32,27.07,30.37,4.89,27.99,1022.96,2032.97,2351.75,2503.01,2694.09,350.31,350.94,24.88,0000 0000 0000 0000 000000
2015-03-09 04:12:18,0.14,3.20,0.00,22.34,27.10,30.40,4.90,27.89,1022.96,2032.89,2350.63,2502.11,2693.16,350.36,350.85,24.91,0000 0000 0000 0000 000000
2015-03-09 04:17:19,0.07,3.20,0.00,22.36,27.13,30.44,4.84,27.88,1022.97,2032.58,2349.45,2501.24,2692.17,349.97,350.38,24.94,0000 0000 0000 0000 000000
2015-03-09 04:22:21,0.09,3.20,0.00,22.42,27.16,30.44,4.84,27.93,1022.99,2032.12,2348.26,2500.24,2691.14,350.09,350.55,24.97,0000 0000 0000 0000 000000
2015-03-09 04:27:22,0.13,3.21,0.00,22.43,27.20,30.51,4.87,28.01,1023.09,2032.02,2347.14,2499.36,2690.15,350.24,350.86,24.99,0000 0000 0000 0000 000000
2015-03-09 04:32:24,0.15,3.21,0.00,22.43,27.23,30.56,4.89,28.07,1023.30,2032.00,2345.94,2498.42,2689.13,349.73,350.38,25.02,0000 0000 0000 0000 000000
2015-03-09 04:37:25,0.17,3.22,0.00,22.45,27.26,30.56,4.78,27.78,1023.31,2032.00,2344.70,2497.48,2688.11,350.02,350.49,25.05,0000 0000 0000 0000 000000
2015-03-09 04:42:26,0.15,3.22,0.00,22.45,27.30,30.60,4.94,28.02,1023.44,2031.99,2343.39,2496.49,2687.15,351.07,351.65,25.08,0000 0000 0000 0000 000000
2015-03-09 04:47:27,0.10,3.22,0.00,22.49,27.33,30.62,4.81,27.81,1023.44,2031.98,2342.56,2495.82,2686.38,349.92,350.55,25.11,0000 0000 0000 0000 000000
2015-03-09 04:52:29,0.11,3.23,0.00,22.52,27.37,30.64,4.86,27.77,1023.45,2031.89,2341.30,2494.95,2685.32,350.08,350.70,25.14,0000 0000 0000 0000 000000
2015-03-09 04:57:30,0.09,3.23,0.00,22.52,27.41,30.68,4.78,27.65,1023.45,2031.55,2339.83,2493.97,2684.28,349.68,350.54,25.17,0000 0000 0000 0000 000000
2015-03-09 05:02:31,0.11,3.23,0.00,22.55,27.44,30.71,4.80,27.55,1023.45,2031.14,2338.55,2493.00,2683.18,350.12,350.61,25.20,0000 0000 0000 0000 000000
2015-03-09 05:07:33,0.13,3.24,0.00,22.58,27.47,30.74,4.86,27.63,1023.45,2031.04,2337.47,2492.08,2682.21,349.91,350.43,25.23,0000 0000 0000 0000 000000
2015-03-09 05:12:34,0.14,3.24,0.00,22.66,27.51,30.75,4.82,27.79,1023.45,2031.00,2336.35,2491.17,2681.21,349.75,350.07,25.26,0000 0000 0000 0000 000000
2015-03-09 05:17:35,0.15,3.25,0.00,23.09,27.54,30.83,4.87,27.81,1023.45,2031.00,2335.28,2490.26,2680.19,350.07,349.64,25.29,0000 0000 0000 0000 000000
2015-03-09 05:22:37,0.14,3.25,0.00,23.30,27.58,30.89,4.85,27.88,1023.45,2030.98,2334.25,2489.40,2679.27,350.04,349.97,25.32,0000 0000 0000 0000 000000
2015-03-09 05:27:38,0.13,3.25,0.00,23.29,27.62,30.87,4.82,27.68,1023.45,2030.95,2333.02,2488.55,2678.31,349.87,349.53,25.35,0000 0000 0000 0000 000000
2015-03-09 05:32:39,0.11,3.26,0.00,23.26,27.65,30.84,4.84,27.85,1023.45,2030.73,2331.76,2487.55,2677.23,350.42,350.14,25.38,0000 0000 0000 0000 000000
2015-03-09 05:37:40,0.08,3.26,0.00,23.23,27.68,30.88,4.91,27.82,1023.45,2030.32,2330.59,2486.58,2676.21,350.42,350.13,25.40,0000 0000 0000 0000 000000
2015-03-09 05:42:42,0.12,3.26,0.00,23.32,27.70,30.81,4.81,27.91,1023.45,2030.04,2329.37,2485.62,2675.20,350.14,349.82,25.43,0000 0000 0000 0000 000000
2015-03-09 05:47:43,0.13,3.27,0.00,23.36,27.72,30.85,4.83,27.65,1023.46,2030.01,2328.31,2484.76,2674.24,349.70,349.28,25.46,0000 0000 0000 0000 000000
2015-03-09 05:52:44,0.13,3.27,0.00,23.36,27.75,30.87,4.84,27.79,1023.45,2030.01,2327.05,2483.92,2673.30,350.31,350.14,25.49,0000 0000 0000 0000 000000
2015-03-09 05:57:46,0.17,3.28,0.00,23.40,27.76,30.85,4.81,27.75,1023.46,2030.00,2325.70,2483.00,2672.37,350.16,349.72,25.52,0000 0000 0000 0000 000000
2015-03-09 06:02:47,0.11,3.28,0.00,23.41,27.77,30.84,4.83,27.91,1023.49,2030.00,2324.88,2482.10,2671.45,350.39,349.88,25.55,0000 0000 0000 0000 000000
2015-03-09 06:07:49,0.14,3.28,0.00,23.46,27.80,30.82,4.83,27.80,1023.49,2030.00,2323.95,2481.38,2670.57,350.33,349.88,25.58,0000 0000 0000 0000 000000
2015-03-09 06:12:50,0.13,3.29,0.00,23.50,27.80,30.82,4.81,27.86,1023.52,2030.00,2322.85,2480.60,2669.69,349.20,348.52,25.61,0000 0000 0000 0000 000000
2015-03-09 06:17:51,0.11,3.29,0.00,23.50,27.82,30.83,4.84,28.02,1023.75,2030.00,2321.76,2479.86,2668.81,350.52,350.16,25.64,0000 0000 0000 0000 000000
2015-03-09 06:22:52,0.12,3.30,0.00,23.52,27.82,30.81,4.84,27.84,1023.83,2029.99,2320.85,2479.03,2667.92,349.90,349.44,25.67,0000 0000 0000 0000 000000
2015-03-09 06:27:54,0.16,3.30,0.00,23.55,27.82,30.80,4.84,27.77,1023.64,2029.95,2319.67,2478.09,2666.93,349.75,349.19,25.70,0000 0000 0000 0000 000000
2015-03-09 06:32:55,0.13,3.30,0.00,23.56,27.84,30.80,4.85,27.81,1023.55,2029.90,2318.65,2477.25,2666.01,350.16,349.28,25.73,0000 0000 0000 0000 000000
2015-03-09 06:37:57,0.15,3.31,0.00,23.54,27.85,30.84,4.85,27.76,1023.46,2029.87,2317.52,2476.45,2665.07,350.08,349.26,25.76,0000 0000 0000 0000 000000
2015-03-09 06:42:58,0.10,3.31,0.00,23.55,27.85,30.81,4.85,27.94,1023.45,2029.70,2316.23,2475.56,2664.13,350.04,349.41,25.78,0000 0000 0000 0000 000000
2015-03-09 06:47:59,0.13,3.32,0.00,23.56,27.85,30.82,4.80,27.81,1023.45,2029.79,2315.33,2474.91,2663.30,350.34,349.77,25.81,0000 0000 0000 0000 000000
2015-03-09 06:53:01,0.07,3.32,0.00,23.55,27.85,30.80,4.80,27.88,1023.25,2029.49,2314.46,2474.06,2662.37,350.74,350.25,25.84,0000 0000 0000 0000 000000
2015-03-09 06:58:02,0.12,3.32,0.00,23.57,27.85,30.76,4.76,28.17,1022.93,2029.33,2313.46,2473.23,2661.46,349.82,348.93,25.87,0000 0000 0000 0000 000000
2015-03-09 07:03:03,0.10,3.32,0.00,23.57,27.85,30.77,4.81,28.29,1022.82,2029.15,2312.32,2472.33,2660.35,350.42,349.56,25.90,0000 0000 0000 0000 000000
2015-03-09 07:08:04,0.13,3.33,0.00,23.58,27.86,30.77,4.85,28.07,1022.89,2029.05,2311.25,2471.50,2659.39,350.26,349.45,25.93,0000 0000 0000 0000 000000
2015-03-09 07:13:05,0.13,3.33,0.00,23.57,27.86,30.78,4.78,28.38,1022.56,2029.03,2310.13,2470.69,2658.45,349.93,348.93,25.96,0000 0000 0000 0000 000000
2015-03-09 07:18:06,0.11,3.34,0.00,23.59,27.86,30.77,4.77,28.32,1022.64,2029.02,2309.16,2469.93,2657.54,350.54,349.58,25.99,0000 0000 0000 0000 000000
2015-03-09 07:23:08,0.15,3.34,0.00,23.59,27.85,30.75,4.77,28.13,1022.68,2029.00,2307.98,2469.06,2656.61,349.63,348.70,26.02,0000 0000 0000 0000 000000
2015-03-09 07:28:09,0.12,3.34,0.00,23.62,27.85,30.75,4.76,28.29,1022.49,2029.01,2306.95,2468.20,2655.87,349.84,348.79,26.05,0000 0000 0000 0000 000000
2015-03-09 07:33:10,0.11,3.35,0.00,23.61,27.85,30.75,4.78,28.52,1022.49,2029.00,2306.03,2467.68,2655.04,349.57,348.67,26.08,0000 0000 0000 0000 000000
2015-03-09 07:38:12,0.11,3.35,0.00,23.63,27.85,30.75,4.82,28.52,1022.49,2029.00,2305.07,2466.96,2654.25,350.08,349.16,26.11,0000 0000 0000 0000 000000
2015-03-09 07:43:13,0.14,3.36,0.00,23.62,27.85,30.74,4.74,28.24,1022.49,2029.00,2304.04,2466.10,2653.39,349.35,348.32,26.14,0000 0000 0000 0000 000000
2015-03-09 07:48:14,0.13,3.36,0.00,23.59,27.85,30.74,4.88,28.24,1022.48,2029.00,2303.13,2465.40,2652.61,350.44,349.39,26.17,0000 0000 0000 0000 000000
2015-03-09 07:53:15,0.10,3.36,0.00,23.56,27.85,30.75,4.81,28.32,1022.51,2029.00,2302.26,2464.76,2651.87,349.51,348.88,26.19,0000 0000 0000 0000 000000
2015-03-09 07:58:17,0.11,3.37,0.00,23.58,27.85,30.76,4.90,28.48,1022.67,2029.00,2301.27,2464.03,2651.03,350.55,349.47,26.22,0000 0000 0000 0000 000000
2015-03-09 08:03:18,0.14,3.37,0.00,23.57,27.85,30.74,4.84,28.16,1022.85,2029.00,2300.31,2463.36,2650.20,350.13,349.31,26.25,0000 0000 0000 0000 000000
2015-03-09 08:08:19,0.12,3.37,0.00,23.58,27.85,30.76,4.85,28.17,1022.96,2029.00,2299.24,2462.68,2649.51,350.08,349.38,26.28,0000 0000 0000 0000 000000
2015-03-09 08:13:21,0.12,3.38,0.00,23.61,27.84,30.74,4.75,28.30,1022.96,2029.00,2298.22,2461.85,2648.67,349.44,348.54,26.31,0000 0000 0000 0000 000000
2015-03-09 08:18:22,0.12,3.38,0.00,23.59,27.83,30.75,4.77,28.27,1022.96,2029.00,2297.05,2461.04,2647.86,349.78,348.96,26.34,0000 0000 0000 0000 000000
2015-03-09 08:23:24,0.13,3.39,0.00,23.57,27.82,30.73,4.83,28.39,1022.96,2029.00,2296.08,2460.25,2647.02,349.71,348.77,26.37,0000 0000 0000 0000 000000
2015-03-09 08:28:25,0.12,3.39,0.00,23.56,27.82,30.65,4.78,28.26,1022.96,2029.00,2295.08,2459.69,2646.12,349.96,348.75,26.40,0000 0000 0000 0000 000000
2015-03-09 08:33:26,0.11,3.39,0.00,23.56,27.82,30.61,4.84,28.36,1022.96,2029.00,2294.07,2458.98,2645.45,350.07,349.43,26.43,0000 0000 0000 0000 000000
2015-03-09 08:38:27,0.16,3.40,0.00,23.54,27.82,30.64,4.84,28.35,1022.97,2029.00,2292.88,2458.15,2644.63,349.98,349.14,26.46,0000 0000 0000 0000 000000
2015-03-09 08:43:29,0.13,3.40,0.00,23.54,27.82,30.66,4.89,28.27,1022.98,2029.00,2291.81,2457.33,2643.82,350.67,349.75,26.49,0000 0000 0000 0000 000000
2015-03-09 08:48:30,0.12,3.40,0.00,23.47,27.82,30.61,4.89,28.31,1023.02,2029.00,2290.77,2456.69,2643.00,350.46,349.89,26.52,0000 0000 0000 0000 000000
2015-03-09 08:53:31,0.12,3.41,0.00,23.45,27.82,30.59,4.82,28.27,1023.04,2029.00,2289.74,2455.99,2642.14,350.45,349.71,26.55,0000 0000 0000 0000 000000
2015-03-09 08:58:32,0.15,3.41,0.00,23.38,27.82,30.58,4.73,28.26,1023.33,2029.00,2288.63,2455.15,2641.32,349.39,348.83,26.58,0000 0000 0000 0000 000000
2015-03-09 09:03:34,0.15,3.42,0.00,23.43,27.82,30.67,4.86,28.06,1023.43,2029.00,2287.56,2454.38,2640.47,350.25,349.76,26.60,0000 0000 0000 0000 000000
2015-03-09 09:08:35,0.13,3.42,0.00,23.50,27.82,30.74,4.79,28.06,1023.33,2029.00,2286.41,2453.64,2639.67,350.11,349.30,26.63,0000 0000 0000 0000 000000
2015-03-09 09:13:36,0.10,3.42,0.00,23.49,27.82,30.76,4.89,28.18,1023.26,2029.00,2285.33,2452.90,2638.79,350.42,349.84,26.66,0000 0000 0000 0000 000000
2015-03-09 09:18:37,0.14,3.43,0.00,23.46,27.82,30.69,4.79,28.32,1023.29,2029.00,2284.18,2452.02,2637.89,350.04,349.44,26.69,0000 0000 0000 0000 000000
2015-03-09 09:23:39,0.14,3.43,0.00,23.43,27.82,30.69,4.81,28.32,1023.45,2029.00,2283.04,2451.14,2636.98,349.52,349.04,26.72,0000 0000 0000 0000 000000
2015-03-09 09:28:40,0.15,3.44,0.00,23.35,27.82,30.67,4.86,28.39,1023.45,2029.00,2281.96,2450.44,2636.10,349.96,349.62,26.75,0000 0000 0000 0000 000000
2015-03-09 09:33:41,0.15,3.44,0.00,23.17,27.82,30.62,4.78,28.24,1023.45,2029.00,2280.78,2449.68,2635.24,349.64,349.28,26.78,0000 0000 0000 0000 000000
2015-03-09 09:38:42,0.14,3.45,0.00,23.05,27.82,30.58,4.83,28.23,1023.45,2029.00,2279.67,2448.82,2634.30,349.82,349.84,26.81,0000 0000 0000 0000 000000
2015-03-09 09:43:43,0.13,3.45,0.00,23.04,27.82,30.59,4.78,28.38,1023.45,2028.99,2278.52,2448.03,2633.50,350.06,350.04,26.84,0000 0000 0000 0000 000000
2015-03-09 09:48:45,0.15,3.45,0.00,23.01,27.82,30.56,4.79,28.20,1023.45,2028.97,2277.37,2447.18,2632.66,349.72,349.76,26.87,0000 0000 0000 0000 000000
2015-03-09 09:53:46,0.14,3.46,0.00,22.99,27.82,30.59,4.80,28.22,1023.38,2028.96,2276.26,2446.37,2631.76,349.84,350.02,26.90,0000 0000 0000 0000 000000
2015-03-09 09:58:48,0.13,3.46,0.00,22.99,27.84,30.63,4.83,28.48,1023.41,2028.98,2275.10,2445.60,2630.90,350.25,350.16,26.93,0000 0000 0000 0000 000000
2015-03-09 10:03:49,0.10,3.47,0.00,22.94,27.85,30.62,4.86,28.43,1023.45,2028.98,2274.09,2444.96,2630.04,350.54,350.67,26.96,0000 0000 0000 0000 000000
2015-03-09 10:08:50,0.15,3.47,0.00,22.91,27.85,30.69,4.84,28.46,1023.45,2028.98,2273.02,2444.12,2629.21,350.41,350.20,26.99,0000 0000 0000 0000 000000
2015-03-09 10:13:52,0.16,3.47,0.00,23.05,27.85,30.80,4.80,28.43,1023.38,2028.97,2271.89,2443.30,2628.35,350.02,350.07,27.01,0000 0000 0000 0000 000000
2015-03-09 10:18:53,0.16,3.48,0.00,23.31,27.86,30.93,4.85,28.45,1023.44,2028.96,2270.61,2442.45,2627.38,350.01,349.70,27.04,0000 0000 0000 0000 000000
2015-03-09 10:23:55,0.11,3.48,0.00,23.31,27.87,30.97,4.84,28.44,1023.46,2028.95,2269.59,2441.75,2626.63,350.05,349.69,27.07,0000 0000 0000 0000 000000
2015-03-09 10:28:56,0.12,3.49,0.00,23.17,27.87,30.83,4.80,28.35,1023.47,2028.90,2268.45,2440.91,2625.67,350.02,349.86,27.10,0000 0000 0000 0000 000000
2015-03-09 10:33:57,0.14,3.49,0.00,22.99,27.87,30.76,4.80,28.37,1023.46,2028.94,2267.36,2440.08,2624.86,349.37,349.50,27.13,0000 0000 0000 0000 000000
2015-03-09 10:38:59,0.14,3.50,0.00,22.93,27.87,30.79,4.80,28.53,1023.36,2028.92,2266.15,2439.28,2623.91,349.50,349.47,27.16,0000 0000 0000 0000 000000
2015-03-09 10:44:00,0.10,3.50,0.00,22.90,27.87,30.72,4.81,28.37,1023.46,2028.65,2265.02,2438.38,2623.04,350.10,350.30,27.19,0000 0000 0000 0000 000000
2015-03-09 10:49:02,0.11,3.50,0.00,22.81,27.87,30.66,4.83,28.52,1023.47,2028.73,2264.01,2437.80,2622.40,349.71,350.13,27.22,0000 0000 0000 0000 000000
2015-03-09 10:54:03,0.14,3.51,0.00,22.78,27.87,30.64,4.82,28.57,1023.54,2028.68,2262.86,2436.99,2621.53,349.51,349.82,27.25,0000 0000 0000 0000 000000
2015-03-09 10:59:04,0.13,3.51,0.00,22.73,27.87,30.64,4.84,28.42,1023.82,2028.63,2261.75,2436.12,2620.69,350.09,350.56,27.28,0000 0000 0000 0000 000000
2015-03-09 11:04:05,0.12,3.51,0.00,22.74,27.88,30.66,4.83,28.19,1023.78,2028.56,2260.72,2435.43,2619.88,350.15,350.73,27.31,0000 0000 0000 0000 000000
2015-03-09 11:09:07,0.10,3.52,0.00,22.71,27.88,30.70,4.85,28.12,1023.73,2028.45,2259.61,2434.70,2619.05,349.52,350.00,27.34,0000 0000 0000 0000 000000
2015-03-09 11:14:08,0.17,3.52,0.00,22.72,27.88,30.68,4.89,28.16,1023.72,2028.71,2258.59,2433.98,2618.25,350.41,350.86,27.37,0000 0000 0000 0000 000000
2015-03-09 11:19:09,0.12,3.53,0.00,22.68,27.87,30.65,4.86,28.18,1023.79,2028.52,2257.50,2433.13,2617.36,350.10,350.61,27.40,0000 0000 0000 0000 000000
2015-03-09 11:24:11,0.11,3.53,0.00,22.69,27.88,30.71,4.89,28.01,1023.85,2028.40,2256.44,2432.43,2616.53,350.52,351.14,27.42,0000 0000 0000 0000 000000
2015-03-09 11:29:12,0.15,3.53,0.00,22.65,27.88,30.68,4.88,28.26,1023.93,2028.58,2255.44,2431.86,2615.86,350.12,350.83,27.45,0000 0000 0000 0000 000000
2015-03-09 11:34:13,0.07,3.54,0.00,22.65,27.89,30.75,4.89,28.16,1023.94,2028.32,2254.30,2431.04,2614.98,350.27,350.88,27.48,0000 0000 0000 0000 000000
2015-03-09 11:39:14,0.13,3.54,0.00,22.60,27.90,30.73,4.85,28.15,1023.93,2028.25,2253.23,2430.30,2614.08,349.70,350.36,27.51,0000 0000 0000 0000 000000
2015-03-09 11:44:16,0.16,3.55,0.00,22.60,27.90,30.72,4.84,27.99,1023.92,2028.17,2252.04,2429.48,2613.12,349.99,350.81,27.54,0000 0000 0000 0000 000000
2015-03-09 11:49:17,0.11,3.55,0.00,22.55,27.90,30.68,4.83,27.92,1023.94,2028.25,2251.08,2428.81,2612.45,349.63,350.66,27.57,0000 0000 0000 0000 000000
2015-03-09 11:54:18,0.14,3.55,0.00,22.52,27.90,30.66,4.76,28.15,1023.93,2028.21,2249.99,2428.04,2611.63,349.10,349.86,27.60,0000 0000 0000 0000 000000
2015-03-09 11:59:19,0.14,3.56,0.00,22.54,27.90,30.70,4.89,28.13,1023.94,2028.30,2249.00,2427.31,2610.88,350.22,351.07,27.63,0000 0000 0000 0000 000000
2015-03-09 12:04:21,0.09,3.56,0.00,22.53,27.90,30.71,4.88,28.19,1023.95,2028.13,2247.96,2426.58,2610.00,350.07,350.85,27.66,0000 0000 0000 0000 000000
2015-03-09 12:09:22,0.14,3.56,0.00,22.57,27.90,30.76,4.84,28.18,1023.94,2028.05,2246.85,2425.76,2609.09,350.24,350.74,27.69,0000 0000 0000 0000 000000
2015-03-09 12:14:23,0.12,3.57,0.00,22.59,27.90,30.78,4.85,28.07,1023.94,2028.10,2245.87,2425.03,2608.32,350.52,351.19,27.72,0000 0000 0000 0000 000000
2015-03-09 12:19:25,0.14,3.57,0.00,22.54,27.91,30.71,4.87,27.93,1023.96,2028.08,2244.88,2424.29,2607.56,350.14,350.83,27.75,0000 0000 0000 0000 000000
2015-03-09 12:24:26,0.11,3.57,0.00,22.54,27.91,30.69,4.91,28.05,1023.95,2028.06,2243.86,2423.72,2606.78,350.77,351.47,27.78,0000 0000 0000 0000 000000
2015-03-09 12:29:27,0.14,3.58,0.00,22.56,27.91,30.73,4.80,28.12,1023.85,2028.06,2242.72,2422.87,2605.92,349.41,349.75,27.81,0000 0000 0000 0000 000000
2015-03-09 12:34:28,0.13,3.58,0.00,22.55,27.92,30.73,4.88,28.13,1023.92,2028.05,2241.62,2422.05,2605.06,349.91,350.62,27.83,0000 0000 0000 0000 000000
2015-03-09 12:39:29,0.14,3.59,0.00,22.57,27.92,30.69,4.87,28.23,1023.94,2028.02,2240.65,2421.27,2604.23,350.40,351.14,27.86,0000 0000 0000 0000 000000
2015-03-09 12:44:31,0.13,3.59,0.00,22.55,27.92,30.70,4.89,28.14,1023.94,2028.02,2239.70,2420.63,2603.36,350.09,350.77,27.89,0000 0000 0000 0000 000000
2015-03-09 12:49:32,0.08,3.59,0.00,22.57,27.92,30.77,4.84,28.07,1023.94,2028.01,2238.84,2419.94,2602.70,349.72,350.44,27.92,0000 0000 0000 0000 000000
2015-03-09 12:54:33,0.13,3.60,0.00,22.54,27.92,30.70,4.87,28.13,1023.94,2028.00,2237.84,2419.11,2601.92,349.87,350.51,27.95,0000 0000 0000 0000 000000
2015-03-09 12:59:35,0.14,3.60,0.00,22.51,27.92,30.74,4.88,28.23,1023.94,2028.01,2236.85,2418.50,2601.08,350.14,350.83,27.98,0000 0000 0000 0000 000000